FENGYUN 1C DEB

Satellite information

Favourite Embed

Satellite Type and Status

DEBRISIN ORBIT

Key statistics

Satellite FENGYUN 1C DEB at a glance.

Uptime

9555

Days in orbit

Revolutions

≈ 14.0

Per day

Orbit

SSO

Sun Synchronous Orbit

Inclination

98.9

Latest

Satellite identification and parameters

Extended collection of information and parameters for FENGYUN 1C DEB.

Object identification

Identified? True

Debris? True

Object name: FENGYUN 1C DEB

International designator: 1999-025AEF

Object number (NORAD): 30416

Object ID (CCSDS): 30416

Country: PEOPLES REPUBLIC OF CHINA (PRC)

Current information (Y/N): Y

RCS size: SMALL

Orbital parameters

Period: 102.674 minutes

Inclination: 98.851 deg

SMA: 7263.308 km

Apoapsis: 924.37 km

Periapsis: 845.977 km

RAAN: 216.5816 deg

Eccentricy: 0.0053965

Argument of periapsis: 273.9461 deg

Mean anomaly: 85.5537 deg

Mean motion: 14.02494084 rev/day

Mean motion (dot): 0.00000328 rev/day2

B* drag term: 0.0002381 1/REarth

Two-line elements (TLE)

Creation date: July 6, 2025, 10:26 p.m.

Reference frame: TEME

Reference center: EARTH

Epoch: July 6, 2025, 1:37 p.m. UTC

TLE line 0: 0 FENGYUN 1C DEB

TLE line 1: 1 30416U 99025AEF 25187.56737852 .00000328 00000-0 23810-3 0 9995

TLE line 2: 2 30416 98.8510 216.5816 0053965 273.9461 85.5537 14.02494084944068

Live tracking on map

Real-time ground track for satellite FENGYUN 1C DEB.

In-orbit conjunctions

A list of the most updated potential collisions computed for object FENGYUN 1C DEB.

Target Orbit TCA Probability of collision Miss distance Type
FENGYUN 1C DEB SSO 2025-02-01 21:31:11 0.0001727779 214.0 (m) DEBRIS
COSMOS 2278 LEO 2024-09-05 16:41:29 0.00121877 919.0 (m) PAYLOAD

Associated space launch

Chinese polar orbiting meteorological satellite

FENGYUN 1C DEB was lifted into orbit during the mission ‘Long March 4B | Feng Yun 1C’, on board a Long March 4B space rocket.

The launch took place on May 10, 1999, 1:33 a.m. from Launch Complex 7.

For more information about the launch, click the button.

Launch to space Long March 4B | Feng Yun 1C
Long March 4B | Feng Yun 1C

Agency: N/A

Status: Launch Successful

Launch date: May 10, 1999, 1:33 a.m. UTC

Rocket: Long March 4B

Launch pad: Launch Complex 7

Location: Taiyuan Satellite Launch Center, People's Republic of China

...

Latest news about this satellite

There are no fresh news available about this satellite. Check back as we update our databases every day.


Newsletter sign-up

Weekly statistics, charts and insights to help you stay on top of the space industry.